Weather in Hulin

China     30°31′41″N   114°48′19″E
temp.,
°C
wind,
m/s
gust,
m/s
humid.,
%
clouds,
%
prec.,
mm/h
press.,
hPa
HPBL,
m
8 may, sat
sat823:00+21nnw2264100 0.0 101116
02:00+21ssw1163100 0.0 100911
05:00+20wsw1179100 0.0 100925
08:00+23ssw2379100 0.0 1009290
11:00+26sw34652 0.0 1009735
14:00+29sw45540 0.0 10071078
17:00+29ssw44530 0.0 1006937
20:00+25s22670 0.0 100612
9 may, sun
sun923:00+24se33740 0.0 100730
02:00+22e11800 0.0 100718
05:00+21ese23860 0.0 100740
08:00+24ese45770 0.0 1008254
11:00+28se34560 0.0 1008722
14:00+31sse33430 0.0 10051303
17:00+31sse23420 0.0 10031277
20:00+26ese47620 0.0 1004104
10 may, mon
mon1023:00+24ese510750 0.0 1004165
02:00+23ese35830 0.0 100388
05:00+22ese46870 0.0 1003102
08:00+26ese457580 0.0 1004221
11:00+31se445031 0.0 10031004
14:00+33ssw244767 0.0 10021767
17:00+32wnw2252100 0.1 1000905
20:00+22ne5694100 19.8 1006392
11 may, tue
tue1123:00+21se5890100 1.9 1005288
02:00+21se71192100 4.8 1004398
05:00+20ene2489100 0.1 1005215
08:00+22e4586100 0.1 1006347
11:00+23e2381100 0.1 1007342
14:00+24ene2277100 0.8 1005349
17:00+23n1282100 0.9 1005200
20:00+22n229199 1.1 100541
12 may, wed
wed1223:00+22wnw2290100 0.0 100626
02:00+21n1291100 0.0 100541
05:00+21s1192100 0.0 100514
08:00+23s1185100 0.0 1006291
11:00+24wsw3382100 0.2 1006476
14:00+27wsw336938 0.5 1004890
17:00+26ssw3376100 0.9 1003524
20:00+24ssw34885 2.3 100573